Weather History for Montauk, NY

Change the Weather History Date:

Wednesday, March 5, 2014

  Actual Average (KHTO) Record (KHTO)
Temperature  
Mean Temperature 30 °F -  
Max Temperature 35 °F 44 °F 61 °F (1974)
Min Temperature 24 °F 30 °F 10 °F (1948)
Degree Days  
Heating Degree Days 36    
Moisture  
Dew Point 15 °F    
Average Humidity 54    
Maximum Humidity 69    
Minimum Humidity 39    
Precipitation  
Precipitation 0.00 in - - ()
Sea Level Pressure  
Sea Level Pressure 30.29 in    
Wind  
Wind Speed 4 mph (NE)    
Max Wind Speed 15 mph    
Max Gust Speed 25 mph    
Averages and records for this station are not official NWS values.
T = Trace of Precipitation, MM = Missing Value Source: NWS Daily Summary

Daily Weather History Graph

Daily Weather History Graph

Search for Another Location

Airport:

Trip Planner

Search our weather history database for the weather conditions in past years. The results will help you decide how hot, cold, wet, or windy it might be!

Date:

Astronomy

Mar. 05, 2014 Rise Set
Actual Time 6:15 AM EST 5:43 PM EST
Civil Twilight 5:48 AM EST 6:10 PM EST
Nautical Twilight 5:16 AM EST 6:42 PM EST
Astronomical Twilight 4:44 AM EST 7:14 PM EST
Moon 8:36 AM EST (3/5) 10:51 PM EST (3/5)
Length of Visible Light 12h 22m
Length of Day
11h 27m
Waxing Crescent, 23% of the Moon is Illuminated
Mar 5
Waxing Crescent
Mar 8
First Quarter
Mar 16
Full
Mar 23
Last Quarter
Mar 30
New

Hourly Weather History & Observations

Time (EST) Temp. Windchill Dew Point Humidity Pressure Visibility Wind Dir Wind Speed Gust Speed Precip Events Conditions
12:54 AM 28.0 °F - 12.9 °F 53% 30.28 in - Calm Calm - N/A   Unknown
1:54 AM 27.0 °F - 14.0 °F 58% 30.26 in - Calm Calm - N/A   Unknown
2:54 AM 26.1 °F - 15.1 °F 63% 30.24 in - Calm Calm - N/A   Unknown
3:54 AM 24.1 °F - 15.1 °F 69% 30.22 in - Calm Calm - N/A   Unknown
4:54 AM 28.9 °F 25.2 °F 16.0 °F 58% 30.25 in - NNE 3.5 mph - N/A   Unknown
5:54 AM 28.9 °F - 12.9 °F 51% 30.25 in - Calm Calm - N/A   Unknown
6:54 AM 30.0 °F - 12.0 °F 47% 30.27 in - Calm Calm - N/A   Unknown
7:54 AM 30.9 °F 26.2 °F 12.0 °F 46% 30.27 in - NNE 4.6 mph - N/A   Unknown
8:54 AM 32.0 °F 26.4 °F 12.9 °F 45% 30.27 in - NE 5.8 mph - N/A   Unknown
9:54 AM 34.0 °F 27.2 °F 17.1 °F 50% 30.27 in - ENE 8.1 mph - N/A   Unknown
10:54 AM 34.0 °F 27.2 °F 15.1 °F 46% 30.26 in - NNE 8.1 mph - N/A   Unknown
11:54 AM 34.0 °F 28.0 °F 12.9 °F 42% 30.27 in - NNE 6.9 mph - N/A   Unknown
12:54 PM 35.1 °F 28.6 °F 12.9 °F 40% 30.24 in - NE 8.1 mph - N/A   Unknown
1:54 PM 35.1 °F 30.1 °F 12.9 °F 40% 30.24 in - Variable 5.8 mph - N/A   Unknown
2:54 PM 35.1 °F 31.0 °F 12.0 °F 39% 30.25 in - NE 4.6 mph - N/A   Unknown
3:54 PM 34.0 °F 28.8 °F 14.0 °F 44% 30.27 in - NE 5.8 mph - N/A   Unknown
4:54 PM 34.0 °F - 17.1 °F 50% 30.28 in - Calm Calm - N/A   Unknown
5:54 PM 33.1 °F 24.4 °F 19.0 °F 56% 30.31 in - NE 11.5 mph - N/A   Unknown
6:54 PM 30.9 °F 22.2 °F 21.0 °F 67% 30.32 in - NNE 10.4 mph 18.4 mph N/A   Unknown
7:54 PM 30.0 °F 22.4 °F 19.9 °F 66% 30.36 in - NE 8.1 mph - N/A   Unknown
8:54 PM 28.9 °F 21.1 °F 19.9 °F 69% 30.39 in - NE 8.1 mph - N/A   Unknown
9:54 PM 28.0 °F 17.5 °F 18.0 °F 66% 30.42 in - NNE 12.7 mph 23.0 mph N/A   Unknown
10:54 PM 27.0 °F 15.6 °F 15.1 °F 61% 30.43 in - NNE 13.8 mph 21.9 mph N/A   Unknown
11:54 PM 26.1 °F 14.0 °F 15.1 °F 63% 30.44 in - NNE 15.0 mph 25.3 mph N/A   Unknown